Weather in Yurmala

Latvia     56˚58′13″N   23˚46′30″E
temp.,
°C
wind,
m/s
gust,
m/s
humid.,
%
clouds,
%
prec.,
mm/h
press.,
hPa
HPBL,
m
27 november, fri
fri2723:00+8˚sw4890100 1.7 1008451
02:00+7˚nne71082100 4.3 1008715
05:00+7˚n8107993 0.1 1009856
08:00+6˚nnw9117371 0.2 10101214
11:00+5˚n91178100 0.3 10121057
14:00+3˚n7987100 0.8 1013834
17:00+3˚n81078100 0.6 10131046
20:00+3˚nne7984100 1.1 1015864
28 november, sat
sat2823:00+3˚ne797593 0.2 1017809
02:00+3˚ne687690 0.3 1019793
05:00+4˚ne6874100 0.1 1020935
08:00+4˚nne91078100 0.1 1021950
11:00+4˚ne8107996 0.1 1022935
14:00+4˚nne787695 0.1 1022964
17:00+4˚ne797985 0.1 1023855
20:00+3˚ene687492 0.2 1024846
29 november, sun
sun2923:00+3˚ene6776100 0.1 1024756
02:00+2˚ene6783100 0.1 1025630
05:00+1˚e579192 0.1 1024519
08:00+1˚e468393 0.1 1025506
11:00+1˚e578264 0.0 1025548
14:00+2˚e457354 0.0 1025748
17:00+1˚e467681 0.0 1024565
20:00ene347771 0.0 1024467
30 november, mon
mon3023:00+1˚ene347497 0.0 1023642
02:00+2˚n357699 0.1 1023579
05:00+2˚n5783100 0.1 1021640
08:00+2˚n7897100 1.4 1021584
11:00+2˚nw6895100 0.8 1020581
14:00+1˚w6893100 1.1 1020551
17:00+1˚wsw6896100 0.5 1019488
20:00+1˚ssw4882100 0.6 1020414
1 december, tue
tue123:00ssw699289 0.0 1020343
02:00+2˚ssw7108473 0.0 1020590
05:00ssw71187100 0.0 1021456
08:00s71188100 0.1 1022523
11:00s7108798 0.0 1023482
14:00s698597 0.0 1025520
17:00sse5884100 0.0 1026506
20:00−1˚sse588892 0.0 1028391